GW5424 Weather Reports


Display with metric or nautical units.
time (UTC)temp
F
wind
direction
speed
MPH
gust
MPH
rain 1hr
in
rain 24hr
in
rain mn
in
humidity
%
barometer
mb
20260505022536 73 155 2.0 7.0 0.00 0.00 0.00 54 1008.8
20260505022034 74 55 1.0 7.0 0.00 0.00 0.00 54 1008.8
20260505021550 74 338 3.0 6.0 0.00 0.00 0.00 53 1008.8
20260505021036 74 10 3.0 5.0 0.00 0.00 0.00 52 1008.7
20260505020535 75 248 1.0 4.0 0.00 0.00 0.00 52 1008.7
20260505020047 75 90 2.0 7.0 0.00 0.00 0.00 52 1008.8
20260505015536 76 355 3.0 7.0 0.00 0.00 0.00 50 1008.7
20260505015037 76 9 3.0 7.0 0.00 0.00 0.00 49 1008.7
20260505014551 77 18 2.0 6.0 0.00 0.00 0.00 48 1008.8
20260505014037 77 355 1.0 9.0 0.00 0.00 0.00 48 1008.7
20260505013535 77 28 1.0 9.0 0.00 0.00 0.00 48 1008.8
20260505013043 77 21 4.0 9.0 0.00 0.00 0.00 46 1008.7
20260505012536 77 268 2.0 8.0 0.00 0.00 0.00 45 1008.7
20260505012037 77 90 3.0 9.0 0.00 0.00 0.00 44 1008.8
20260505011541 77 90 3.0 9.0 0.00 0.00 0.00 44 1008.8
20260505011034 77 90 3.0 9.0 0.00 0.00 0.00 44 1008.9
20260505010536 78 21 3.0 8.0 0.00 0.00 0.00 44 1008.9
20260505010048 78 90 3.0 9.0 0.00 0.00 0.00 42 1008.9
20260505005534 78 355 2.0 9.0 0.00 0.00 0.00 41 1009.0
20260505005034 78 351 3.0 8.0 0.00 0.00 0.00 40 1009.0
20260505004538 78 90 3.0 8.0 0.00 0.00 0.00 41 1008.9
20260505004038 79 243 2.0 8.0 0.00 0.00 0.00 40 1009.0
20260505003535 78 90 1.0 9.0 0.00 0.00 0.00 40 1008.9
20260505003054 78 347 4.0 9.0 0.00 0.00 0.00 40 1008.9
20260505002533 78 99 3.0 9.0 0.00 0.00 0.00 42 1008.8
20260505002109 78 90 3.0 9.0 0.00 0.00 0.00 41 1008.8
20260505001547 78 99 4.0 9.0 0.00 0.00 0.00 40 1008.8
20260505001035 78 337 3.0 9.0 0.00 0.00 0.00 40 1008.9
20260505000536 78 359 4.0 9.0 0.00 0.00 0.00 38 1008.9
20260505000048 78 359 3.0 7.0 0.00 0.00 0.00 37 1008.9
20260504235536 78 16 4.0 7.0 0.00 0.00 0.00 35 1008.9
20260504235035 78 90 4.0 8.0 0.00 0.00 0.00 36 1008.8
20260504234550 78 90 4.0 8.0 0.00 0.00 0.00 37 1008.9
20260504234035 78 28 3.0 9.0 0.00 0.00 0.00 37 1008.8
20260504233538 78 34 3.0 11.0 0.00 0.00 0.00 38 1008.9
20260504233052 78 34 5.0 11.0 0.00 0.00 0.00 38 1008.9
20260504232535 78 7 3.0 11.0 0.00 0.00 0.00 37 1008.8
20260504232036 78 51 3.0 8.0 0.00 0.00 0.00 38 1008.9
20260504231549 78 355 4.0 8.0 0.00 0.00 0.00 37 1008.9
20260504231034 78 257 3.0 7.0 0.00 0.00 0.00 37 1008.9
20260504230533 78 30 1.0 7.0 0.00 0.00 0.00 39 1009.0
20260504230054 78 227 2.0 7.0 0.00 0.00 0.00 39 1009.0
20260504225539 78 174 3.0 8.0 0.00 0.00 0.00 37 1009.2
20260504225035 78 349 3.0 8.0 0.00 0.00 0.00 38 1009.2
20260504224545 79 90 2.0 9.0 0.00 0.00 0.00 37 1009.2
20260504224033 78 247 4.0 9.0 0.00 0.00 0.00 38 1009.2
20260504223533 79 90 4.0 8.0 0.00 0.00 0.00 41 1009.2
20260504223045 79 114 2.0 10.0 0.00 0.00 0.00 40 1009.3
20260504222536 79 90 2.0 10.0 0.00 0.00 0.00 38 1009.3
20260504222033 78 28 2.0 8.0 0.00 0.00 0.00 38 1009.4
20260504221540 78 90 3.0 8.0 0.00 0.00 0.00 40 1009.4
20260504221035 78 17 4.0 10.0 0.00 0.00 0.00 40 1009.5
20260504220535 78 30 3.0 10.0 0.00 0.00 0.00 40 1009.5
20260504220051 78 55 4.0 9.0 0.00 0.00 0.00 39 1009.5
20260504215536 78 45 4.0 10.0 0.00 0.00 0.00 41 1009.4
20260504215036 78 28 2.0 10.0 0.00 0.00 0.00 40 1009.5
20260504214548 78 355 3.0 8.0 0.00 0.00 0.00 39 1009.5
20260504214036 78 28 4.0 10.0 0.00 0.00 0.00 40 1009.5
20260504213536 78 90 3.0 10.0 0.00 0.00 0.00 40 1009.5
20260504213047 78 90 3.0 8.0 0.00 0.00 0.00 40 1009.6
20260504212533 78 55 1.0 7.0 0.00 0.00 0.00 40 1009.6
20260504212041 78 90 2.0 8.0 0.00 0.00 0.00 40 1009.6
20260504211544 78 171 3.0 10.0 0.00 0.00 0.00 40 1009.6
20260504211035 78 90 4.0 10.0 0.00 0.00 0.00 40 1009.6
20260504210540 78 36 2.0 7.0 0.00 0.00 0.00 42 1009.5
20260504210054 78 90 2.0 11.0 0.00 0.00 0.00 41 1009.7
20260504205537 77 45 1.0 11.0 0.00 0.00 0.00 42 1009.7
20260504205038 77 36 3.0 9.0 0.00 0.00 0.00 43 1009.7
20260504204556 77 90 3.0 9.0 0.00 0.00 0.00 44 1009.8
20260504204035 76 10 6.0 9.0 0.00 0.00 0.00 45 1009.7
20260504203537 77 39 3.0 8.0 0.00 0.00 0.00 43 1009.7
20260504203103 77 90 3.0 9.0 0.00 0.00 0.00 45 1009.7
20260504202536 77 34 5.0 8.0 0.00 0.00 0.00 47 1009.6
20260504202036 78 90 2.0 9.0 0.00 0.00 0.00 43 1009.7
20260504201548 79 90 4.0 9.0 0.00 0.00 0.00 40 1009.7
20260504201035 80 90 1.0 8.0 0.00 0.00 0.00 38 1009.7
20260504200535 79 99 1.0 3.0 0.00 0.00 0.00 39 1009.8
20260504200046 78 114 2.0 5.0 0.00 0.00 0.00 42 1009.9
20260504195537 77 112 1.0 5.0 0.00 0.00 0.00 44 1009.9
20260504195039 76 141 4.0 5.0 0.00 0.00 0.00 41 1010.0
20260504194546 75 99 1.0 8.0 0.00 0.00 0.00 42 1010.0
20260504194038 75 217 2.0 9.0 0.00 0.00 0.00 42 1010.0
20260504193537 75 30 4.0 9.0 0.00 0.00 0.00 43 1010.0
20260504193048 75 25 6.0 9.0 0.00 0.00 0.00 44 1010.0
20260504192536 75 51 3.0 7.0 0.00 0.00 0.00 44 1010.0
20260504192036 75 39 2.0 8.0 0.00 0.00 0.00 42 1010.1
20260504191550 75 34 3.0 8.0 0.00 0.00 0.00 44 1010.1
20260504191033 75 19 3.0 8.0 0.00 0.00 0.00 43 1010.1
20260504190537 75 45 2.0 8.0 0.00 0.00 0.00 43 1010.1
20260504190101 75 51 2.0 4.0 0.00 0.00 0.00 45 1010.1
20260504185534 75 144 1.0 9.0 0.00 0.00 0.00 49 1010.1
20260504185033 74 90 3.0 9.0 0.00 0.00 0.00 45 1010.2
20260504184550 73 183 2.0 5.0 0.00 0.00 0.00 45 1010.2
20260504184039 73 34 3.0 8.0 0.00 0.00 0.00 46 1010.3
20260504183535 73 217 3.0 8.0 0.00 0.00 0.00 49 1010.3
20260504183047 73 10 3.0 7.0 0.00 0.00 0.00 47 1010.3
20260504182536 73 30 2.0 6.0 0.00 0.00 0.00 49 1010.4
20260504182036 73 214 1.0 7.0 0.00 0.00 0.00 49 1010.4
20260504181550 72 355 2.0 6.0 0.00 0.00 0.00 49 1010.5
20260504181036 72 32 2.0 7.0 0.00 0.00 0.00 48 1010.5
20260504180537 72 124 3.0 7.0 0.00 0.00 0.00 49 1010.4
20260504180045 71 141 1.0 8.0 0.00 0.00 0.00 52 1010.4
20260504175535 70 178 4.0 8.0 0.00 0.00 0.00 49 1010.3
20260504175033 71 205 4.0 8.0 0.00 0.00 0.00 50 1010.4
20260504174553 71 203 1.0 3.0 0.00 0.00 0.00 51 1010.4
20260504174037 70 158 1.0 7.0 0.00 0.00 0.00 52 1010.4
20260504173533 69 99 1.0 7.0 0.00 0.00 0.00 53 1010.4
20260504173052 69 149 4.0 7.0 0.00 0.00 0.00 54 1010.4
20260504172534 69 212 2.0 8.0 0.00 0.00 0.00 53 1010.4
20260504172036 68 116 1.0 9.0 0.00 0.00 0.00 54 1010.5
20260504171549 68 224 3.0 9.0 0.00 0.00 0.00 57 1010.4
20260504171038 69 208 4.0 9.0 0.00 0.00 0.00 55 1010.4
20260504170535 68 174 1.0 7.0 0.00 0.00 0.00 56 1010.4
20260504151038 62 0 0.0 1.0 0.00 0.00 0.00 70 1009.8
20260504150535 61 141 1.0 2.0 0.00 0.00 0.00 75 1009.9
20260504141038 53 149 1.0 3.0 0.00 0.00 0.00 90 1009.4
20260504140538 53 227 2.0 3.0 0.00 0.00 0.00 90 1009.4
20260504130539 50 90 0.0 2.0 0.00 0.00 0.00 91 1008.8
20260504110540 51 0 0.0 2.0 0.00 0.00 0.00 90 1008.9
20260504100534 53 90 0.0 2.0 0.00 0.00 0.00 88 1008.8
20260504081543 56 141 0.0 2.0 0.00 0.00 0.00 85 1009.0
20260504081034 56 90 0.0 2.0 0.00 0.00 0.00 85 1009.0
20260504080537 56 0 0.0 2.0 0.00 0.00 0.00 84 1009.0
20260504050536 63 183 1.0 2.0 0.00 0.00 0.00 77 1008.9
20260504045539 64 195 1.0 2.0 0.00 0.00 0.00 77 1008.8
20260504045035 64 183 0.0 2.0 0.00 0.00 0.00 74 1008.8
20260504044546 65 198 0.0 2.0 0.00 0.00 0.00 72 1008.9
20260504044035 65 340 1.0 2.0 0.00 0.00 0.00 69 1008.8
20260504043536 65 90 0.0 2.0 0.00 0.00 0.00 71 1008.8
20260504043043 65 217 1.0 2.0 0.00 0.00 0.00 74 1008.7
20260504042536 66 210 1.0 2.0 0.00 0.00 0.00 73 1008.7
20260504042035 67 217 1.0 2.0 0.00 0.00 0.00 75 1008.7
20260504041547 67 183 0.0 2.0 0.00 0.00 0.00 72 1008.6
20260504041034 67 239 1.0 2.0 0.00 0.00 0.00 71 1008.6
20260504040534 68 236 0.0 2.0 0.00 0.00 0.00 64 1008.6
20260504040050 68 90 2.0 2.0 0.00 0.00 0.00 62 1008.5
20260504035536 69 90 0.0 2.0 0.00 0.00 0.00 68 1008.5
20260504035036 69 174 1.0 2.0 0.00 0.00 0.00 67 1008.5
20260504034545 70 268 1.0 2.0 0.00 0.00 0.00 58 1008.5
20260504034037 71 230 1.0 3.0 0.00 0.00 0.00 57 1008.4
20260504033535 71 90 1.0 3.0 0.00 0.00 0.00 55 1008.3
20260504033051 72 90 2.0 3.0 0.00 0.00 0.00 54 1008.4
20260504032535 73 90 1.0 3.0 0.00 0.00 0.00 53 1008.4
20260504032038 74 90 2.0 2.0 0.00 0.00 0.00 52 1008.3
20260504031556 74 90 1.0 2.0 0.00 0.00 0.00 49 1008.3
20260504031036 75 90 1.0 2.0 0.00 0.00 0.00 48 1008.3
20260504030536 75 90 1.0 3.0 0.00 0.00 0.00 47 1008.3
20260504030045 76 141 1.0 4.0 0.00 0.00 0.00 46 1008.3
20260504025540 76 12 2.0 6.0 0.00 0.00 0.00 45 1008.2
20260504025038 77 355 2.0 6.0 0.00 0.00 0.00 45 1008.1
20260504024548 77 90 3.0 6.0 0.00 0.00 0.00 45 1008.1
20260504024038 77 339 3.0 7.0 0.00 0.00 0.00 44 1008.0
20260504023539 78 358 3.0 8.0 0.00 0.00 0.00 44 1008.0
20260504023050 79 90 4.0 7.0 0.00 0.00 0.00 43 1007.9